| time (UTC) | temp F | wind direction | speed MPH | gust MPH | rain 1hr in | rain 24hr in | rain mn in | humidity % | barometer mb |
| 20260904153015 | 69 | 279 | 3.0 | 10.0 | 0.00 | 0.45 | 0.34 | 88 | 1005.2 |
| 20260904152519 | 68 | 308 | 3.0 | 9.0 | 0.00 | 0.47 | 0.34 | 91 | 1005.0 |
| 20260904152007 | 68 | 315 | 4.0 | 9.0 | 0.00 | 0.47 | 0.34 | 91 | 1005.2 |
| 20260904151519 | 68 | 300 | 9.0 | 9.0 | 0.00 | 0.48 | 0.34 | 89 | 1005.3 |
| 20260904151016 | 69 | 298 | 6.0 | 10.0 | 0.00 | 0.49 | 0.34 | 89 | 1005.2 |
| 20260904150501 | 69 | 294 | 6.0 | 10.0 | 0.00 | 0.49 | 0.34 | 89 | 1005.3 |
| 20260904145958 | 69 | 303 | 4.0 | 8.0 | 0.00 | 0.49 | 0.34 | 89 | 1005.3 |
| 20260904145455 | 69 | 300 | 6.0 | 10.0 | 0.00 | 0.49 | 0.34 | 89 | 1005.2 |
| 20260904144952 | 69 | 302 | 5.0 | 10.0 | 0.00 | 0.49 | 0.34 | 89 | 1005.1 |
| 20260904144455 | 69 | 299 | 7.0 | 8.0 | 0.00 | 0.49 | 0.34 | 88 | 1005.2 |
| 20260904143951 | 69 | 304 | 4.0 | 9.0 | 0.00 | 0.49 | 0.34 | 91 | 1005.3 |
| 20260904143451 | 69 | 298 | 3.0 | 9.0 | 0.00 | 0.49 | 0.34 | 91 | 1005.2 |
| 20260904142949 | 69 | 316 | 3.0 | 6.0 | 0.00 | 0.49 | 0.34 | 92 | 1005.2 |
| 20260904142449 | 69 | 304 | 4.0 | 6.0 | 0.00 | 0.49 | 0.34 | 93 | 1005.5 |
| 20260904141945 | 68 | 240 | 2.0 | 5.0 | 0.00 | 0.49 | 0.34 | 93 | 1005.4 |
| 20260904141645 | 68 | 314 | 3.0 | 5.0 | 0.00 | 0.49 | 0.34 | 93 | 1005.4 |
| 20260904140438 | 68 | 269 | 4.0 | 5.0 | 0.00 | 0.49 | 0.34 | 95 | 1005.4 |
| 20260904135935 | 68 | 226 | 2.0 | 5.0 | 0.00 | 0.49 | 0.34 | 94 | 1005.4 |
| 20260904135431 | 68 | 283 | 1.0 | 4.0 | 0.00 | 0.49 | 0.34 | 95 | 1005.5 |
| 20260904134926 | 68 | 292 | 2.0 | 4.0 | 0.00 | 0.49 | 0.34 | 95 | 1005.5 |
| 20260904134425 | 68 | 315 | 1.0 | 4.0 | 0.00 | 0.49 | 0.34 | 95 | 1005.6 |
| 20260904133924 | 68 | 273 | 2.0 | 3.0 | 0.00 | 0.49 | 0.34 | 95 | 1005.7 |
| 20260904133425 | 68 | 341 | 0.0 | 3.0 | 0.00 | 0.49 | 0.34 | 95 | 1005.5 |
| 20260904132925 | 68 | 199 | 0.0 | 3.0 | 0.00 | 0.49 | 0.34 | 95 | 1005.7 |
| 20260904132422 | 68 | 247 | 1.0 | 2.0 | 0.00 | 0.49 | 0.34 | 95 | 1005.5 |
| 20260904131920 | 67 | 263 | 2.0 | 2.0 | 0.00 | 0.49 | 0.34 | 96 | 1005.7 |
| 20260904131417 | 67 | 324 | 1.0 | 4.0 | 0.00 | 0.49 | 0.34 | 97 | 1005.7 |
| 20260904130915 | 67 | 291 | 2.0 | 4.0 | 0.00 | 0.49 | 0.34 | 96 | 1005.7 |
| 20260904130426 | 66 | 205 | 0.0 | 4.0 | 0.00 | 0.49 | 0.34 | 97 | 1005.6 |
| 20260904125913 | 67 | 295 | 1.0 | 2.0 | 0.00 | 0.49 | 0.34 | 98 | 1005.6 |
| 20260904125414 | 66 | 294 | 1.0 | 2.0 | 0.00 | 0.49 | 0.34 | 98 | 1005.7 |
| 20260904125049 | 66 | 300 | 2.0 | 2.0 | 0.00 | 0.49 | 0.34 | 98 | 1005.8 |
| 20260904123912 | 65 | 313 | 2.0 | 4.0 | 0.00 | 0.49 | 0.34 | 98 | 1005.9 |
| 20260904123752 | 66 | 294 | 1.0 | 3.0 | 0.00 | 0.49 | 0.34 | 98 | 1005.9 |
| 20260904122905 | 66 | 301 | 2.0 | 2.0 | 0.01 | 0.49 | 0.34 | 98 | 1006.2 |
| 20260904122415 | 66 | 348 | 2.0 | 2.0 | 0.01 | 0.49 | 0.34 | 98 | 1006.0 |
| 20260904121900 | 66 | 306 | 0.0 | 2.0 | 0.01 | 0.49 | 0.34 | 98 | 1006.0 |
| 20260904121400 | 65 | 339 | 0.0 | 2.0 | 0.01 | 0.49 | 0.34 | 98 | 1006.2 |
| 20260904120858 | 65 | 306 | 2.0 | 2.0 | 0.01 | 0.49 | 0.34 | 98 | 1006.4 |
| 20260904120356 | 65 | 2 | 0.0 | 2.0 | 0.01 | 0.49 | 0.34 | 98 | 1006.3 |
| 20260904115853 | 65 | 297 | 0.0 | 2.0 | 0.01 | 0.49 | 0.34 | 98 | 1006.2 |
| 20260904115745 | 65 | 302 | 1.0 | 2.0 | 0.01 | 0.49 | 0.34 | 98 | 1006.4 |
| 20260904114851 | 65 | 49 | 2.0 | 2.0 | 0.01 | 0.49 | 0.34 | 98 | 1006.3 |
| 20260904114349 | 65 | 28 | 1.0 | 2.0 | 0.01 | 0.49 | 0.34 | 98 | 1006.3 |
| 20260904113847 | 65 | 19 | 0.0 | 2.0 | 0.01 | 0.49 | 0.34 | 98 | 1006.5 |
| 20260904113348 | 65 | 64 | 1.0 | 2.0 | 0.01 | 0.49 | 0.34 | 98 | 1006.7 |
| 20260904112847 | 65 | 0 | 0.0 | 2.0 | 0.00 | 0.48 | 0.33 | 98 | 1006.6 |
| 20260904112345 | 65 | 14 | 0.0 | 2.0 | 0.00 | 0.48 | 0.33 | 98 | 1006.5 |
| 20260904111839 | 65 | 290 | 0.0 | 2.0 | 0.00 | 0.48 | 0.33 | 98 | 1006.5 |
| 20260904111339 | 64 | 278 | 0.0 | 2.0 | 0.00 | 0.48 | 0.33 | 98 | 1006.4 |
| 20260904110849 | 64 | 291 | 0.0 | 2.0 | 0.00 | 0.48 | 0.33 | 98 | 1006.7 |
| 20260904110338 | 64 | 300 | 0.0 | 2.0 | 0.00 | 0.48 | 0.33 | 98 | 1006.7 |
| 20260904105834 | 64 | 310 | 2.0 | 2.0 | 0.00 | 0.48 | 0.33 | 98 | 1006.8 |
| 20260904105703 | 64 | 296 | 1.0 | 3.0 | 0.00 | 0.48 | 0.33 | 98 | 1006.5 |
| 20260904105526 | 64 | 292 | 1.0 | 3.0 | 0.00 | 0.48 | 0.33 | 98 | 1006.5 |
| 20260904103829 | 64 | 301 | 1.0 | 3.0 | 0.00 | 0.48 | 0.33 | 98 | 1006.6 |
| 20260904103326 | 64 | 332 | 2.0 | 3.0 | 0.00 | 0.48 | 0.33 | 98 | 1006.8 |
| 20260904102823 | 64 | 303 | 2.0 | 3.0 | 0.00 | 0.48 | 0.33 | 98 | 1006.8 |
| 20260904102323 | 64 | 302 | 2.0 | 3.0 | 0.00 | 0.48 | 0.33 | 98 | 1006.8 |
| 20260904101823 | 64 | 350 | 0.0 | 3.0 | 0.00 | 0.48 | 0.33 | 98 | 1006.7 |
| 20260904101721 | 64 | 312 | 1.0 | 3.0 | 0.00 | 0.48 | 0.33 | 98 | 1006.9 |
| 20260904100819 | 64 | 315 | 2.0 | 3.0 | 0.00 | 0.48 | 0.33 | 98 | 1006.9 |
| 20260904100317 | 64 | 313 | 1.0 | 3.0 | 0.00 | 0.48 | 0.33 | 98 | 1007.0 |
| 20260904095816 | 64 | 355 | 1.0 | 3.0 | 0.00 | 0.48 | 0.33 | 98 | 1007.0 |
| 20260904095316 | 64 | 25 | 0.0 | 2.0 | 0.00 | 0.48 | 0.33 | 98 | 1006.9 |
| 20260904094810 | 64 | 315 | 1.0 | 4.0 | 0.00 | 0.48 | 0.33 | 98 | 1006.8 |
| 20260904094645 | 64 | 284 | 0.0 | 4.0 | 0.00 | 0.48 | 0.33 | 98 | 1007.0 |
| 20260904093803 | 63 | 318 | 0.0 | 4.0 | 0.00 | 0.48 | 0.33 | 98 | 1007.0 |
| 20260904093302 | 63 | 304 | 0.0 | 4.0 | 0.01 | 0.48 | 0.33 | 98 | 1006.9 |
| 20260904092801 | 63 | 17 | 3.0 | 4.0 | 0.01 | 0.48 | 0.33 | 98 | 1007.0 |
| 20260904092259 | 63 | 320 | 2.0 | 4.0 | 0.01 | 0.48 | 0.33 | 98 | 1007.0 |
| 20260904091759 | 63 | 325 | 1.0 | 4.0 | 0.01 | 0.48 | 0.33 | 98 | 1007.1 |
| 20260904091259 | 63 | 306 | 2.0 | 4.0 | 0.01 | 0.48 | 0.33 | 98 | 1007.1 |
| 20260904090813 | 63 | 310 | 1.0 | 4.0 | 0.01 | 0.48 | 0.33 | 98 | 1007.3 |
| 20260904090258 | 63 | 54 | 2.0 | 4.0 | 0.01 | 0.48 | 0.33 | 98 | 1007.1 |
| 20260904085757 | 63 | 295 | 1.0 | 2.0 | 0.01 | 0.48 | 0.33 | 98 | 1007.4 |
| 20260904085253 | 63 | 16 | 0.0 | 4.0 | 0.01 | 0.48 | 0.33 | 98 | 1007.4 |
| 20260904084755 | 63 | 7 | 0.0 | 4.0 | 0.01 | 0.48 | 0.33 | 98 | 1007.5 |
| 20260904084254 | 63 | 288 | 2.0 | 4.0 | 0.01 | 0.48 | 0.33 | 98 | 1007.5 |
| 20260904083755 | 63 | 29 | 3.0 | 4.0 | 0.01 | 0.48 | 0.33 | 98 | 1007.5 |
| 20260904083255 | 63 | 290 | 0.0 | 4.0 | 0.01 | 0.47 | 0.33 | 98 | 1007.6 |
| 20260904082752 | 63 | 309 | 2.0 | 2.0 | 0.01 | 0.47 | 0.31 | 98 | 1007.6 |
| 20260904082250 | 63 | 307 | 2.0 | 4.0 | 0.01 | 0.47 | 0.31 | 98 | 1007.6 |
| 20260904081748 | 63 | 29 | 2.0 | 4.0 | 0.01 | 0.47 | 0.31 | 98 | 1008.0 |
| 20260904081409 | 63 | 323 | 2.0 | 4.0 | 0.01 | 0.47 | 0.31 | 98 | 1007.8 |
| 20260904080244 | 63 | 330 | 2.0 | 5.0 | 0.01 | 0.47 | 0.31 | 98 | 1007.9 |
| 20260904075742 | 63 | 304 | 4.0 | 4.0 | 0.01 | 0.47 | 0.31 | 98 | 1008.1 |
| 20260904075241 | 63 | 307 | 1.0 | 4.0 | 0.01 | 0.47 | 0.31 | 98 | 1008.2 |
| 20260904074741 | 63 | 312 | 1.0 | 3.0 | 0.01 | 0.47 | 0.31 | 98 | 1008.1 |
| 20260904074240 | 62 | 19 | 1.0 | 4.0 | 0.01 | 0.47 | 0.31 | 98 | 1008.2 |
| 20260904073736 | 62 | 12 | 0.0 | 5.0 | 0.01 | 0.47 | 0.31 | 98 | 1008.2 |
| 20260904073235 | 62 | 44 | 2.0 | 5.0 | 0.01 | 0.46 | 0.30 | 98 | 1008.3 |
| 20260904072732 | 62 | 257 | 1.0 | 3.0 | 0.01 | 0.46 | 0.30 | 98 | 1008.4 |
| 20260904072233 | 62 | 32 | 2.0 | 3.0 | 0.01 | 0.46 | 0.30 | 98 | 1008.2 |
| 20260904071734 | 62 | 19 | 2.0 | 4.0 | 0.01 | 0.46 | 0.30 | 98 | 1008.5 |
| 20260904071231 | 62 | 318 | 2.0 | 4.0 | 0.01 | 0.46 | 0.30 | 98 | 1008.5 |
| 20260904071102 | 62 | 326 | 1.0 | 5.0 | 0.02 | 0.46 | 0.30 | 98 | 1008.7 |
| 20260904070229 | 62 | 284 | 0.0 | 5.0 | 0.02 | 0.46 | 0.30 | 98 | 1008.7 |
| 20260904065727 | 62 | 294 | 2.0 | 4.0 | 0.02 | 0.46 | 0.30 | 98 | 1008.8 |
| 20260904065227 | 62 | 300 | 2.0 | 4.0 | 0.02 | 0.46 | 0.30 | 98 | 1008.7 |
| 20260904064728 | 62 | 289 | 2.0 | 3.0 | 0.02 | 0.46 | 0.30 | 98 | 1009.0 |
| 20260904064227 | 62 | 5 | 1.0 | 3.0 | 0.04 | 0.46 | 0.30 | 98 | 1008.9 |
| 20260904063724 | 62 | 304 | 0.0 | 4.0 | 0.06 | 0.46 | 0.30 | 98 | 1009.2 |
| 20260904063222 | 62 | 35 | 0.0 | 4.0 | 0.05 | 0.44 | 0.29 | 97 | 1009.4 |
| 20260904062719 | 62 | 336 | 2.0 | 3.0 | 0.05 | 0.44 | 0.29 | 97 | 1009.5 |
| 20260904062629 | 61 | 30 | 0.0 | 3.0 | 0.05 | 0.44 | 0.29 | 97 | 1009.4 |
| 20260904061716 | 61 | 260 | 0.0 | 2.0 | 0.06 | 0.44 | 0.29 | 97 | 1009.6 |
| 20260904061214 | 61 | 342 | 0.0 | 3.0 | 0.06 | 0.44 | 0.29 | 97 | 1009.4 |
| 20260904060709 | 61 | 347 | 2.0 | 4.0 | 0.05 | 0.43 | 0.28 | 97 | 1010.0 |
| 20260904060222 | 61 | 4 | 0.0 | 4.0 | 0.05 | 0.43 | 0.28 | 97 | 1009.8 |
| 20260904055704 | 61 | 53 | 2.0 | 3.0 | 0.05 | 0.43 | 0.28 | 97 | 1009.9 |
| 20260904055205 | 61 | 308 | 2.0 | 4.0 | 0.05 | 0.43 | 0.28 | 97 | 1009.9 |
| 20260904054702 | 61 | 316 | 2.0 | 6.0 | 0.05 | 0.43 | 0.28 | 97 | 1010.2 |
| 20260904054159 | 61 | 328 | 2.0 | 6.0 | 0.03 | 0.42 | 0.26 | 96 | 1010.3 |
| 20260904053659 | 61 | 294 | 2.0 | 4.0 | 0.01 | 0.40 | 0.24 | 96 | 1010.3 |
| 20260904053350 | 61 | 133 | 2.0 | 4.0 | 0.01 | 0.40 | 0.24 | 96 | 1010.2 |
| 20260904052156 | 61 | 155 | 0.0 | 4.0 | 0.01 | 0.40 | 0.24 | 96 | 1010.2 |
| 20260904051828 | 61 | 280 | 1.0 | 4.0 | 0.00 | 0.39 | 0.23 | 96 | 1010.5 |
| 20260904050653 | 61 | 269 | 1.0 | 4.0 | 0.01 | 0.39 | 0.23 | 95 | 1010.6 |
| 20260904050152 | 61 | 72 | 2.0 | 8.0 | 0.01 | 0.39 | 0.23 | 95 | 1011.0 |
| 20260904045659 | 61 | 44 | 3.0 | 8.0 | 0.01 | 0.39 | 0.23 | 96 | 1010.9 |
| 20260904045527 | 61 | 63 | 2.0 | 3.0 | 0.01 | 0.39 | 0.23 | 96 | 1011.1 |
| 20260904044636 | 61 | 320 | 2.0 | 4.0 | 0.03 | 0.39 | 0.23 | 95 | 1011.1 |
| 20260904044141 | 61 | 30 | 1.0 | 6.0 | 0.03 | 0.39 | 0.23 | 95 | 1011.3 |
| 20260904043632 | 61 | 53 | 1.0 | 6.0 | 0.05 | 0.39 | 0.23 | 95 | 1011.1 |
| 20260904043129 | 61 | 321 | 2.0 | 4.0 | 0.08 | 0.39 | 0.23 | 95 | 1011.3 |
| 20260904043034 | 61 | 42 | 1.0 | 5.0 | 0.16 | 0.39 | 0.23 | 94 | 1011.6 |
| 20260904042133 | 61 | 16 | 1.0 | 5.0 | 0.18 | 0.39 | 0.23 | 94 | 1011.5 |
| 20260904042021 | 61 | 317 | 1.0 | 6.0 | 0.23 | 0.39 | 0.23 | 94 | 1011.5 |
| 20260904041126 | 61 | 162 | 0.0 | 6.0 | 0.23 | 0.39 | 0.23 | 94 | 1011.8 |
| 20260904040625 | 61 | 305 | 5.0 | 10.0 | 0.22 | 0.37 | 0.22 | 94 | 1011.7 |
| 20260904040547 | 61 | 328 | 2.0 | 10.0 | 0.22 | 0.37 | 0.22 | 93 | 1011.7 |
| 20260904035619 | 61 | 48 | 4.0 | 9.0 | 0.22 | 0.37 | 0.22 | 93 | 1011.9 |
| 20260904035114 | 61 | 120 | 3.0 | 9.0 | 0.22 | 0.37 | 0.22 | 93 | 1011.9 |
| 20260904034617 | 61 | 215 | 4.0 | 6.0 | 0.20 | 0.36 | 0.20 | 93 | 1012.0 |
| 20260904034113 | 61 | 46 | 5.0 | 11.0 | 0.20 | 0.36 | 0.20 | 93 | 1012.1 |
| 20260904034041 | 61 | 188 | 3.0 | 11.0 | 0.18 | 0.34 | 0.19 | 93 | 1012.1 |
| 20260904033109 | 62 | 308 | 3.0 | 6.0 | 0.16 | 0.31 | 0.16 | 93 | 1012.0 |
| 20260904032607 | 62 | 257 | 4.0 | 5.0 | 0.08 | 0.23 | 0.08 | 91 | 1011.9 |
| 20260904032500 | 62 | 13 | 0.0 | 12.0 | 0.05 | 0.20 | 0.05 | 90 | 1011.9 |
| 20260904031603 | 63 | 155 | 5.0 | 12.0 | 0.00 | 0.16 | 0.00 | 89 | 1012.2 |
| 20260904031057 | 63 | 145 | 3.0 | 9.0 | 0.00 | 0.16 | 0.00 | 88 | 1012.2 |
| 20260904030747 | 63 | 119 | 1.0 | 9.0 | 0.00 | 0.16 | 0.00 | 88 | 1012.2 |
| 20260904025549 | 63 | 32 | 2.0 | 12.0 | 0.00 | 0.16 | 0.16 | 88 | 1012.0 |
| 20260904025049 | 63 | 121 | 4.0 | 13.0 | 0.00 | 0.16 | 0.16 | 88 | 1012.1 |
| 20260904024543 | 63 | 91 | 6.0 | 13.0 | 0.00 | 0.16 | 0.16 | 88 | 1012.3 |
| 20260904024046 | 63 | 112 | 4.0 | 11.0 | 0.00 | 0.16 | 0.16 | 89 | 1012.2 |
| 20260904023534 | 63 | 102 | 5.0 | 15.0 | 0.00 | 0.16 | 0.16 | 89 | 1012.3 |
| 20260904023051 | 63 | 111 | 2.0 | 15.0 | 0.01 | 0.16 | 0.16 | 88 | 1012.2 |
| 20260904022537 | 63 | 84 | 11.0 | 17.0 | 0.01 | 0.16 | 0.16 | 87 | 1012.1 |
| 20260904022452 | 63 | 85 | 5.0 | 17.0 | 0.01 | 0.16 | 0.16 | 87 | 1012.1 |
| 20260904021955 | 63 | 127 | 8.0 | 13.0 | 0.01 | 0.16 | 0.16 | 86 | 1012.1 |
| 20260904021431 | 63 | 61 | 3.0 | 13.0 | 0.01 | 0.16 | 0.16 | 86 | 1012.2 |
| 20260904020524 | 63 | 80 | 8.0 | 12.0 | 0.01 | 0.16 | 0.16 | 86 | 1012.6 |
| 20260904020006 | 63 | 133 | 3.0 | 12.0 | 0.01 | 0.16 | 0.16 | 87 | 1012.7 |
| 20260904015513 | 63 | 110 | 4.0 | 12.0 | 0.01 | 0.16 | 0.16 | 87 | 1012.7 |
| 20260904015006 | 63 | 103 | 8.0 | 12.0 | 0.01 | 0.16 | 0.16 | 87 | 1013.1 |
| 20260904014932 | 63 | 188 | 1.0 | 9.0 | 0.01 | 0.16 | 0.16 | 87 | 1013.1 |
| 20260904014416 | 64 | 93 | 4.0 | 9.0 | 0.01 | 0.16 | 0.16 | 85 | 1013.1 |
| 20260904013501 | 64 | 21 | 3.0 | 11.0 | 0.01 | 0.16 | 0.16 | 85 | 1013.1 |
| 20260904012959 | 64 | 87 | 2.0 | 15.0 | 0.00 | 0.15 | 0.15 | 84 | 1013.3 |
| 20260904012505 | 64 | 105 | 5.0 | 15.0 | 0.00 | 0.15 | 0.15 | 83 | 1013.3 |
| 20260904011958 | 64 | 83 | 2.0 | 7.0 | 0.00 | 0.15 | 0.15 | 82 | 1013.2 |
| 20260904011454 | 65 | 37 | 4.0 | 15.0 | 0.00 | 0.15 | 0.15 | 82 | 1013.6 |
| 20260904011008 | 65 | 61 | 7.0 | 15.0 | 0.00 | 0.15 | 0.15 | 82 | 1013.3 |
| 20260904010845 | 65 | 87 | 2.0 | 13.0 | 0.00 | 0.15 | 0.15 | 82 | 1013.2 |
| 20260904005948 | 65 | 68 | 3.0 | 11.0 | 0.00 | 0.15 | 0.15 | 82 | 1013.2 |
| 20260904005447 | 65 | 58 | 2.0 | 11.0 | 0.00 | 0.15 | 0.15 | 82 | 1013.2 |
| 20260904004945 | 65 | 32 | 5.0 | 9.0 | 0.00 | 0.15 | 0.15 | 83 | 1013.3 |
| 20260904004444 | 65 | 62 | 6.0 | 9.0 | 0.00 | 0.15 | 0.15 | 83 | 1013.3 |
| 20260904003943 | 65 | 113 | 3.0 | 11.0 | 0.00 | 0.15 | 0.15 | 83 | 1013.5 |
| 20260904003442 | 65 | 141 | 1.0 | 17.0 | 0.00 | 0.15 | 0.15 | 82 | 1013.5 |
| 20260904002942 | 65 | 161 | 4.0 | 17.0 | 0.00 | 0.15 | 0.15 | 82 | 1013.6 |
| 20260904002442 | 65 | 118 | 7.0 | 17.0 | 0.00 | 0.15 | 0.15 | 82 | 1013.5 |
| 20260904001936 | 65 | 102 | 7.0 | 15.0 | 0.00 | 0.15 | 0.15 | 82 | 1013.5 |
| 20260904001434 | 65 | 181 | 2.0 | 15.0 | 0.00 | 0.15 | 0.15 | 82 | 1013.7 |
| 20260904000942 | 65 | 111 | 4.0 | 18.0 | 0.00 | 0.15 | 0.15 | 83 | 1013.7 |
| 20260904000429 | 65 | 155 | 1.0 | 18.0 | 0.00 | 0.15 | 0.15 | 83 | 1013.7 |
| 20260903235929 | 65 | 113 | 8.0 | 14.0 | 0.00 | 0.15 | 0.15 | 83 | 1013.8 |
| 20260903235427 | 65 | 112 | 8.0 | 14.0 | 0.00 | 0.15 | 0.15 | 83 | 1013.7 |
| 20260903234927 | 65 | 78 | 6.0 | 13.0 | 0.00 | 0.15 | 0.15 | 84 | 1013.7 |
| 20260903234421 | 65 | 83 | 5.0 | 13.0 | 0.00 | 0.15 | 0.15 | 84 | 1013.6 |
| 20260903233913 | 65 | 115 | 6.0 | 14.0 | 0.00 | 0.15 | 0.15 | 84 | 1013.7 |
| 20260903233400 | 65 | 42 | 0.0 | 14.0 | 0.00 | 0.15 | 0.15 | 84 | 1013.7 |
| 20260903232857 | 65 | 67 | 6.0 | 13.0 | 0.00 | 0.15 | 0.15 | 85 | 1014.1 |
| 20260903232400 | 65 | 112 | 5.0 | 10.0 | 0.00 | 0.15 | 0.15 | 85 | 1014.1 |
| 20260903231847 | 65 | 98 | 9.0 | 16.0 | 0.00 | 0.15 | 0.15 | 85 | 1013.9 |
| 20260903231338 | 65 | 131 | 11.0 | 16.0 | 0.00 | 0.15 | 0.15 | 86 | 1014.0 |
| 20260903230841 | 64 | 106 | 7.0 | 15.0 | 0.00 | 0.15 | 0.15 | 86 | 1014.0 |
| 20260903230336 | 65 | 139 | 4.0 | 16.0 | 0.00 | 0.15 | 0.15 | 86 | 1014.2 |
| 20260903225836 | 65 | 110 | 7.0 | 16.0 | 0.00 | 0.15 | 0.15 | 86 | 1014.4 |
| 20260903225327 | 64 | 126 | 6.0 | 13.0 | 0.00 | 0.15 | 0.15 | 86 | 1014.5 |
| 20260903225252 | 64 | 78 | 4.0 | 10.0 | 0.00 | 0.15 | 0.15 | 86 | 1014.5 |
| 20260903224327 | 64 | 56 | 2.0 | 17.0 | 0.00 | 0.15 | 0.15 | 86 | 1014.5 |
| 20260903223825 | 65 | 102 | 3.0 | 17.0 | 0.00 | 0.15 | 0.15 | 85 | 1014.5 |
| 20260903223324 | 65 | 115 | 4.0 | 11.0 | 0.00 | 0.15 | 0.15 | 85 | 1014.8 |
| 20260903222824 | 65 | 324 | 1.0 | 11.0 | 0.00 | 0.15 | 0.15 | 84 | 1014.8 |
| 20260903222740 | 65 | 50 | 5.0 | 9.0 | 0.00 | 0.15 | 0.15 | 84 | 1015.0 |
| 20260903221809 | 65 | 337 | 2.0 | 9.0 | 0.00 | 0.15 | 0.15 | 84 | 1014.9 |
| 20260903221309 | 65 | 308 | 0.0 | 4.0 | 0.00 | 0.15 | 0.15 | 85 | 1014.9 |
| 20260903220809 | 65 | 280 | 4.0 | 7.0 | 0.00 | 0.15 | 0.15 | 85 | 1015.1 |
| 20260903220257 | 65 | 17 | 2.0 | 9.0 | 0.00 | 0.15 | 0.15 | 84 | 1015.1 |
| 20260903215759 | 65 | 28 | 4.0 | 9.0 | 0.00 | 0.15 | 0.15 | 84 | 1015.1 |
| 20260903215300 | 65 | 42 | 4.0 | 6.0 | 0.00 | 0.15 | 0.15 | 84 | 1015.1 |
| 20260903214758 | 65 | 28 | 2.0 | 8.0 | 0.00 | 0.15 | 0.15 | 85 | 1015.2 |
| 20260903214258 | 65 | 100 | 1.0 | 8.0 | 0.00 | 0.15 | 0.15 | 84 | 1015.4 |
| 20260903214240 | 65 | 53 | 2.0 | 11.0 | 0.00 | 0.15 | 0.15 | 84 | 1015.3 |
| 20260903213256 | 65 | 61 | 2.0 | 11.0 | 0.00 | 0.15 | 0.15 | 84 | 1015.4 |
| 20260903212753 | 65 | 259 | 3.0 | 6.0 | 0.00 | 0.15 | 0.15 | 84 | 1015.4 |
| 20260903212252 | 65 | 9 | 2.0 | 5.0 | 0.00 | 0.15 | 0.15 | 84 | 1015.3 |
| 20260903211753 | 65 | 311 | 0.0 | 14.0 | 0.00 | 0.15 | 0.15 | 84 | 1015.5 |
| 20260903211250 | 65 | 330 | 0.0 | 14.0 | 0.00 | 0.15 | 0.15 | 83 | 1015.3 |
| 20260903210749 | 65 | 332 | 2.0 | 8.0 | 0.00 | 0.15 | 0.15 | 83 | 1015.1 |
| 20260903210629 | 65 | 327 | 3.0 | 8.0 | 0.00 | 0.15 | 0.15 | 83 | 1015.5 |
| 20260903205745 | 65 | 122 | 1.0 | 15.0 | 0.00 | 0.15 | 0.15 | 83 | 1015.6 |
| 20260903205234 | 65 | 201 | 8.0 | 15.0 | 0.00 | 0.15 | 0.15 | 82 | 1015.5 |
| 20260903204735 | 65 | 230 | 2.0 | 12.0 | 0.00 | 0.15 | 0.15 | 83 | 1015.6 |
| 20260903204235 | 65 | 64 | 5.0 | 11.0 | 0.00 | 0.15 | 0.15 | 82 | 1015.5 |
| 20260903203731 | 65 | 200 | 3.0 | 10.0 | 0.00 | 0.15 | 0.15 | 82 | 1015.4 |
| 20260903203633 | 65 | 226 | 4.0 | 11.0 | 0.00 | 0.15 | 0.15 | 82 | 1015.2 |
| 20260903202728 | 65 | 38 | 0.0 | 17.0 | 0.00 | 0.15 | 0.15 | 83 | 1015.4 |
| 20260903202226 | 65 | 352 | 1.0 | 17.0 | 0.00 | 0.15 | 0.15 | 82 | 1015.3 |
| 20260903201724 | 65 | 130 | 6.0 | 17.0 | 0.00 | 0.15 | 0.15 | 83 | 1015.4 |
| 20260903201223 | 65 | 117 | 2.0 | 17.0 | 0.00 | 0.15 | 0.15 | 84 | 1015.5 |
| 20260903200722 | 65 | 104 | 7.0 | 17.0 | 0.00 | 0.15 | 0.15 | 84 | 1015.3 |
| 20260903200226 | 65 | 91 | 7.0 | 17.0 | 0.00 | 0.15 | 0.15 | 84 | 1015.2 |
| 20260903195725 | 65 | 190 | 7.0 | 15.0 | 0.00 | 0.15 | 0.15 | 84 | 1015.5 |
| 20260903195612 | 65 | 127 | 5.0 | 20.0 | 0.00 | 0.15 | 0.15 | 85 | 1015.4 |
| 20260903194723 | 65 | 59 | 6.0 | 20.0 | 0.00 | 0.15 | 0.15 | 85 | 1015.7 |
| 20260903194220 | 65 | 99 | 9.0 | 15.0 | 0.00 | 0.15 | 0.15 | 85 | 1015.8 |
| 20260903193709 | 65 | 95 | 4.0 | 15.0 | 0.00 | 0.15 | 0.15 | 86 | 1015.9 |
| 20260903193206 | 65 | 93 | 4.0 | 12.0 | 0.00 | 0.15 | 0.15 | 86 | 1016.1 |
| 20260903192700 | 65 | 24 | 1.0 | 12.0 | 0.00 | 0.15 | 0.15 | 86 | 1016.0 |
| 20260903192159 | 65 | 193 | 2.0 | 11.0 | 0.00 | 0.15 | 0.15 | 86 | 1016.2 |
| 20260903192056 | 65 | 189 | 1.0 | 9.0 | 0.00 | 0.15 | 0.15 | 87 | 1016.3 |
| 20260903191153 | 64 | 35 | 1.0 | 9.0 | 0.00 | 0.15 | 0.15 | 87 | 1016.6 |
| 20260903190651 | 64 | 38 | 7.0 | 9.0 | 0.00 | 0.15 | 0.15 | 87 | 1016.7 |
| 20260903190150 | 64 | 72 | 4.0 | 9.0 | 0.01 | 0.15 | 0.15 | 88 | 1016.5 |
| 20260903185638 | 64 | 352 | 0.0 | 11.0 | 0.01 | 0.15 | 0.15 | 89 | 1016.5 |
| 20260903185142 | 64 | 102 | 2.0 | 16.0 | 0.01 | 0.15 | 0.15 | 89 | 1016.7 |
| 20260903185057 | 64 | 89 | 9.0 | 16.0 | 0.01 | 0.15 | 0.15 | 89 | 1016.8 |
| 20260903184141 | 64 | 69 | 5.0 | 15.0 | 0.02 | 0.15 | 0.15 | 90 | 1016.7 |
| 20260903183636 | 64 | 108 | 10.0 | 13.0 | 0.02 | 0.15 | 0.15 | 90 | 1016.9 |
| 20260903183132 | 64 | 110 | 6.0 | 15.0 | 0.02 | 0.15 | 0.15 | 90 | 1016.8 |
| 20260903182627 | 64 | 119 | 3.0 | 15.0 | 0.02 | 0.15 | 0.15 | 90 | 1017.1 |
| 20260903182551 | 64 | 149 | 2.0 | 12.0 | 0.02 | 0.15 | 0.15 | 91 | 1017.1 |
| 20260903181628 | 64 | 128 | 9.0 | 15.0 | 0.04 | 0.15 | 0.15 | 90 | 1017.2 |
| 20260903181126 | 64 | 107 | 9.0 | 15.0 | 0.04 | 0.15 | 0.15 | 90 | 1017.2 |
| 20260903180621 | 64 | 97 | 6.0 | 13.0 | 0.05 | 0.15 | 0.15 | 89 | 1017.3 |
| 20260903180125 | 64 | 165 | 3.0 | 15.0 | 0.03 | 0.13 | 0.13 | 90 | 1017.5 |
| 20260903175616 | 64 | 92 | 7.0 | 15.0 | 0.03 | 0.13 | 0.13 | 89 | 1017.8 |
| 20260903175110 | 64 | 107 | 4.0 | 9.0 | 0.03 | 0.13 | 0.13 | 89 | 1017.9 |
| 20260903175024 | 65 | 69 | 4.0 | 9.0 | 0.03 | 0.13 | 0.13 | 89 | 1018.2 |
| 20260903174511 | 65 | 77 | 1.0 | 9.0 | 0.02 | 0.12 | 0.12 | 89 | 1018.2 |
| 20260903173611 | 65 | 94 | 5.0 | 11.0 | 0.02 | 0.12 | 0.12 | 90 | 1018.3 |
| 20260903173053 | 65 | 94 | 2.0 | 11.0 | 0.02 | 0.12 | 0.12 | 88 | 1018.1 |
| 20260903172551 | 64 | 104 | 3.0 | 10.0 | 0.02 | 0.12 | 0.12 | 89 | 1018.2 |
| 20260903172045 | 64 | 130 | 1.0 | 8.0 | 0.04 | 0.12 | 0.12 | 89 | 1018.1 |
| 20260903171936 | 65 | 170 | 0.0 | 7.0 | 0.02 | 0.11 | 0.11 | 90 | 1018.4 |
| 20260903171042 | 65 | 64 | 2.0 | 10.0 | 0.02 | 0.11 | 0.11 | 89 | 1018.3 |
| 20260903170934 | 65 | 123 | 2.0 | 10.0 | 0.01 | 0.10 | 0.10 | 88 | 1018.3 |
| 20260903170032 | 65 | 275 | 2.0 | 9.0 | 0.01 | 0.10 | 0.10 | 90 | 1018.4 |
| 20260903165529 | 65 | 68 | 1.0 | 9.0 | 0.02 | 0.10 | 0.10 | 89 | 1018.3 |
| 20260903165025 | 65 | 111 | 6.0 | 10.0 | 0.02 | 0.10 | 0.10 | 90 | 1018.3 |
| 20260903164520 | 65 | 101 | 4.0 | 12.0 | 0.04 | 0.10 | 0.10 | 89 | 1018.3 |
| 20260903164016 | 65 | 115 | 4.0 | 12.0 | 0.05 | 0.10 | 0.10 | 89 | 1018.4 |
| 20260903163513 | 65 | 85 | 7.0 | 12.0 | 0.05 | 0.10 | 0.10 | 91 | 1018.5 |
| 20260903163013 | 65 | 80 | 5.0 | 13.0 | 0.06 | 0.10 | 0.10 | 91 | 1018.1 |
| 20260903162512 | 64 | 114 | 9.0 | 13.0 | 0.08 | 0.10 | 0.10 | 90 | 1018.1 |
| 20260903162414 | 64 | 78 | 5.0 | 11.0 | 0.06 | 0.09 | 0.09 | 91 | 1018.4 |
| 20260903161509 | 64 | 87 | 4.0 | 14.0 | 0.07 | 0.09 | 0.09 | 92 | 1018.2 |
| 20260903161005 | 64 | 126 | 2.0 | 14.0 | 0.09 | 0.09 | 0.09 | 91 | 1018.4 |
| 20260903160459 | 64 | 111 | 10.0 | 12.0 | 0.09 | 0.09 | 0.09 | 92 | 1018.3 |
| 20260903155955 | 64 | 67 | 7.0 | 10.0 | 0.09 | 0.09 | 0.09 | 92 | 1018.2 |
| 20260903155450 | 64 | 129 | 5.0 | 11.0 | 0.08 | 0.08 | 0.08 | 92 | 1018.0 |
| 20260903155343 | 64 | 95 | 6.0 | 11.0 | 0.08 | 0.08 | 0.08 | 91 | 1018.3 |
| 20260903154444 | 64 | 68 | 4.0 | 15.0 | 0.06 | 0.06 | 0.06 | 91 | 1018.2 |
| 20260903153942 | 64 | 88 | 5.0 | 15.0 | 0.05 | 0.05 | 0.05 | 90 | 1018.2 |
| 20260903153439 | 64 | 123 | 6.0 | 14.0 | 0.05 | 0.05 | 0.05 | 90 | 1018.0 |